{"data":{"norad_id":68550,"intl_designator":"2026-070J","name":"STARLINK-36304","alt_names":[],"object_type":"PAYLOAD","status":"ACTIVE","operator":null,"country":"US","launch_date":"2026-04-02","launch_site_code":"AFETR","launch_vehicle":null,"mission":null,"orbit_class":"UNKNOWN","rcs_meters":null,"size_class":null,"mass_kg":null,"dimensions":null,"purposes":["comms"],"wikipedia_slug":null,"has_3d_model":false,"image_url":null,"decayed_at":null,"tle_current":{"epoch":"2026-09-20T03:43:09.063264Z","epoch_age_seconds":75115,"freshness":"FRESH","line1":"1 68550U 26070J   26263.15496601  .00018686  00000+0  56247-3 0  9995","line2":"2 68550  53.1590 175.3867 0000846  83.7452 276.3647 15.34418089 26380","mean_motion":15.34418089,"eccentricity":8.46e-5,"inclination_deg":53.159,"raan_deg":175.3867,"arg_perigee_deg":83.7452,"mean_anomaly_deg":276.3647,"bstar":0.00056247,"rev_number":2638,"period_min":93.846651725702,"perigee_km":462.0707458793,"apogee_km":463.22820695111,"semimajor_km":6840.7864764152,"source":"CELESTRAK","updated_at":"2026-09-20T09:00:43.933610Z"}}}